[[{"header":{"parameterUnit":"m.s-1","parameterCategory":1,"la1":30.2992,"la2":30.254,"lo1":-89.0895,"lo2":-89.0443,"dy":0.0025,"dx":0.0025,"nx":19,"ny":19,"refTime":"2026-04-11T03:00:00:Z","depth":0,"parameterNumber":2,"parameterNumberName":"U-component_of_WINDS"},"data":[0,0,0,-3.8344,-3.8346,-3.8417,-3.8417,-3.8521,-3.8522,0,0,0,0,0,0,0,0,0,0,0,-3.833,-3.8331,-3.8344,-3.8346,-3.8417,-3.8417,-3.8521,-3.8522,0,0,0,0,0,0,0,0,0,0,0,-3.833,-3.8331,-3.8332,-3.8346,-3.8417,-3.8417,-3.8521,-3.8462,0,0,0,0,0,0,0,0,0,0,-3.8391,-3.8386,-3.8331,-3.8332,-3.8347,-3.8417,-3.8417,-3.8459,-3.8466,-3.8494,0,-3.8522,0,-3.8524,-3.853,-3.853,0,0,0,-3.834,-3.838,-3.8393,-3.8333,-3.8347,-3.8417,-3.8383,-3.8463,-3.847,-3.8503,-3.8523,-3.8527,-3.8526,-3.8531,-3.8531,-3.8717,-3.8718,0,0,-3.8336,-3.8347,-3.8388,-3.8398,-3.8388,-3.8381,-3.8386,-3.8467,-3.8489,-3.8523,-3.8529,-3.8527,-3.8532,-3.8532,-3.8715,-3.8717,0,0,0,-3.8329,-3.8345,-3.8355,-3.8394,-3.8406,-3.8383,-3.8388,-3.8486,-3.8488,-3.853,-3.8529,-3.8532,-3.8534,-3.8714,-3.8716,-3.8782,0,0,0,-3.8326,-3.834,-3.8353,-3.8361,-3.8405,-3.8447,-3.8405,-3.8483,-3.8491,-3.8528,-3.8532,-3.8535,-3.8713,-3.8715,-3.8778,-3.8811,0,0,0,-3.8323,-3.834,-3.8353,-3.8361,-3.8393,-3.8445,-3.8452,-3.8484,-3.8491,-3.8531,-3.8535,-3.8712,-3.8715,-3.8774,-3.8804,-3.8862,0,0,0,-3.8323,-3.841,-3.8354,-3.8452,-3.8392,-3.8487,-3.8452,-3.8521,-3.8563,-3.8533,-3.8713,-3.8716,-3.8772,-3.88,-3.8858,-3.8911,-3.8935,0,0,-3.8439,-3.8425,-3.8481,-3.8433,-3.8541,-3.8475,-3.8593,-3.862,-3.8614,-3.8683,-3.8687,-3.8779,-3.8803,-3.8861,-3.9069,-3.9088,0,0,0,-3.8522,-3.8562,-3.8589,-3.863,-3.8655,-3.8678,-3.8687,-3.8698,-3.8756,-3.8652,-3.8817,-3.8831,-3.8864,-3.8889,-3.8905,-3.8932,-3.8728,-3.8728,-3.8728,-3.8699,-3.8688,-3.8781,-3.8779,-3.882,-3.8831,-3.8862,-3.8878,-3.8854,-3.8894,-3.8913,-3.9041,-3.907,-3.9082,-3.9111,-3.8942,-3.8943,-3.8943,-3.8943,-3.8866,-3.8921,-3.8891,-3.8969,-3.8957,-3.9023,-3.9038,-3.9019,-3.9079,-3.9025,-3.9053,-3.8993,-3.9103,-3.9128,-3.8948,-3.8947,-3.8947,-3.8946,-3.8946,-3.8979,-3.9003,-3.9017,-3.9077,-3.9125,-3.9121,-3.9181,-3.9168,-3.9157,-3.9186,-3.9204,-3.9203,-3.9198,-3.9196,-3.9197,-3.9197,-3.9197,-3.9198,-3.9198,-3.9088,-3.9102,-3.9153,-3.919,-3.9216,-3.9249,-3.9263,-3.9288,-3.9313,-3.9299,-3.9299,-3.927,-3.9118,-3.9078,-3.9205,-3.9203,-3.9203,-3.9202,-3.9202,-3.9256,-3.9217,-3.9297,-3.9323,-3.9366,-3.9415,-3.9401,-3.9454,-3.9473,-3.9503,-3.9471,-3.9361,-3.9344,-3.9331,-3.9298,-3.9474,-3.9474,-3.9474,-3.9474,-3.9349,-3.9341,-3.942,-3.9464,-3.9505,-3.9501,-3.9592,-3.9606,-3.9613,-3.9625,-3.9599,-3.9555,-3.9543,-3.9533,-3.9516,-3.9484,-3.9704,-3.9704,-3.9704,-3.9451,-3.9447,-3.9525,-3.9534,-3.9568,-3.9597,-3.9682,-3.9733,-3.9734,-3.9713,-3.9633,-3.9624,-3.9553,-3.9531,-3.9503,-3.9477,-3.9419,0,0]},{"header":{"parameterUnit":"m.s-1","parameterCategory":1,"la1":30.2992,"la2":30.254,"lo1":-89.0895,"lo2":-89.0443,"dy":0.0025,"dx":0.0025,"nx":19,"ny":19,"refTime":"2026-04-11T03:00:00:Z","depth":0,"parameterNumber":3,"parameterNumberName":"V-component_of_WINDS"},"data":[0,0,0,3.9337,3.9337,3.934,3.934,3.9355,3.9355,0,0,0,0,0,0,0,0,0,0,0,3.9344,3.9344,3.9337,3.9337,3.934,3.934,3.9355,3.9355,0,0,0,0,0,0,0,0,0,0,0,3.9344,3.9344,3.9345,3.9337,3.934,3.934,3.9354,3.9348,0,0,0,0,0,0,0,0,0,0,3.9344,3.9358,3.9344,3.9345,3.9338,3.934,3.934,3.9348,3.9349,3.9359,0,3.937,0,3.9363,3.9357,3.9357,0,0,0,3.9331,3.9357,3.9351,3.9345,3.9338,3.934,3.9337,3.9348,3.9349,3.936,3.937,3.9371,3.9363,3.9357,3.9357,3.9438,3.9439,0,0,3.9331,3.9348,3.9351,3.9352,3.9353,3.9337,3.9337,3.9349,3.9361,3.937,3.9371,3.9364,3.9357,3.9357,3.9438,3.9438,0,0,0,3.9335,3.9348,3.9342,3.9352,3.9352,3.9337,3.9337,3.936,3.9357,3.9371,3.9364,3.9357,3.9358,3.9437,3.9438,3.9488,0,0,0,3.9335,3.935,3.9342,3.9352,3.9352,3.9356,3.9349,3.9356,3.9356,3.9364,3.9357,3.9358,3.9436,3.9437,3.9485,3.9508,0,0,0,3.9341,3.9351,3.9354,3.9353,3.9355,3.9355,3.9352,3.9355,3.9353,3.9357,3.9358,3.9436,3.9437,3.9482,3.9503,3.9535,0,0,0,3.9353,3.9397,3.9355,3.9402,3.9355,3.9386,3.9352,3.9374,3.9384,3.9357,3.9436,3.9438,3.9481,3.95,3.9532,3.9564,3.9579,0,0,3.9417,3.9405,3.9431,3.9394,3.9438,3.9385,3.9435,3.9427,3.9411,3.943,3.9432,3.9485,3.9503,3.9534,3.9658,3.967,0,0,0,3.9457,3.9477,3.9484,3.9495,3.9492,3.9491,3.9474,3.9471,3.9487,3.9425,3.9505,3.9515,3.9532,3.9547,3.9557,3.9571,3.9445,3.9445,3.9445,3.9572,3.9552,3.9594,3.9575,3.9586,3.957,3.9577,3.957,3.9545,3.9564,3.9569,3.9647,3.9665,3.9672,3.9688,3.9585,3.9585,3.9585,3.9585,3.9665,3.9688,3.9657,3.9686,3.9665,3.9689,3.9676,3.9658,3.9678,3.9641,3.9655,3.9617,3.9686,3.9699,3.9589,3.9588,3.9588,3.9588,3.9587,3.9737,3.9745,3.9743,3.9758,3.9773,3.9751,3.9773,3.9752,3.9733,3.9747,3.9751,3.975,3.9746,3.9751,3.9751,3.9751,3.9751,3.9752,3.9752,3.9812,3.9808,3.9829,3.9832,3.9837,3.9842,3.9828,3.9833,3.9833,3.9816,3.9816,3.9789,3.9697,3.9675,3.9756,3.9755,3.9755,3.9754,3.9754,3.9912,3.9887,3.9919,3.9926,3.9928,3.9945,3.9919,3.9932,3.9933,3.9944,3.9915,3.9851,3.9836,3.9828,3.9808,3.9919,3.9919,3.9919,3.9919,3.9973,3.9964,3.9994,4.0006,4.0014,3.9996,4.0034,4.0025,4.0011,4.0011,3.9992,3.9965,3.9958,3.9947,3.9936,3.9918,4.0055,4.0055,4.0055,4.0033,4.0025,4.0062,4.005,4.0051,4.0053,4.0088,4.0103,4.0082,4.006,4.001,4.0005,3.9961,3.9948,3.9923,3.9907,3.9873,0,0]}]]